| time (UTC) | temp F | wind direction | speed MPH | gust MPH | rain 1hr in | rain 24hr in | rain mn in | humidity % | barometer mb |
| 20260903035406 | 66 | 232 | 2.0 | 8.0 | 0.00 | 0.00 | 0.00 | 88 | 1015.9 |
| 20260903034503 | 66 | 233 | 1.0 | 7.0 | 0.00 | 0.00 | 0.00 | 88 | 1015.7 |
| 20260903033605 | 66 | 175 | 1.0 | 5.0 | 0.00 | 0.00 | 0.00 | 87 | 1015.5 |
| 20260903032703 | 66 | 212 | 1.0 | 9.0 | 0.00 | 0.00 | 0.00 | 87 | 1015.4 |
| 20260903032014 | 66 | 240 | 2.0 | 9.0 | 0.00 | 0.00 | 0.00 | 87 | 1015.5 |
| 20260903030905 | 66 | 199 | 2.0 | 8.0 | 0.00 | 0.00 | 0.00 | 87 | 1015.6 |
| 20260903030005 | 66 | 235 | 2.0 | 7.0 | 0.00 | 0.00 | 0.00 | 87 | 1015.5 |
| 20260903025403 | 66 | 242 | 2.0 | 9.0 | 0.00 | 0.00 | 0.00 | 87 | 1015.4 |
| 20260903024503 | 66 | 200 | 2.0 | 6.0 | 0.00 | 0.00 | 0.00 | 87 | 1015.6 |
| 20260903023815 | 66 | 205 | 2.0 | 5.0 | 0.00 | 0.00 | 0.00 | 87 | 1015.7 |
| 20260903022705 | 66 | 174 | 1.0 | 8.0 | 0.00 | 0.00 | 0.00 | 87 | 1015.5 |
| 20260903021805 | 66 | 207 | 2.0 | 7.0 | 0.00 | 0.00 | 0.00 | 87 | 1015.6 |
| 20260903020905 | 66 | 217 | 1.0 | 7.0 | 0.00 | 0.00 | 0.00 | 87 | 1015.5 |
| 20260903020215 | 66 | 157 | 1.0 | 7.0 | 0.00 | 0.00 | 0.00 | 87 | 1015.7 |
| 20260903015626 | 66 | 178 | 2.0 | 8.0 | 0.00 | 0.00 | 0.00 | 87 | 1015.6 |
| 20260903014503 | 66 | 222 | 1.0 | 5.0 | 0.00 | 0.00 | 0.00 | 87 | 1015.7 |
| 20260903013603 | 66 | 213 | 1.0 | 5.0 | 0.00 | 0.00 | 0.00 | 87 | 1015.7 |
| 20260903012706 | 66 | 213 | 1.0 | 7.0 | 0.00 | 0.00 | 0.00 | 87 | 1015.9 |
| 20260903011803 | 66 | 223 | 1.0 | 7.0 | 0.00 | 0.00 | 0.00 | 87 | 1015.9 |
| 20260903010905 | 66 | 241 | 2.0 | 8.0 | 0.00 | 0.00 | 0.00 | 87 | 1015.8 |
| 20260903010003 | 66 | 213 | 2.0 | 7.0 | 0.00 | 0.00 | 0.00 | 87 | 1015.9 |
| 20260903005403 | 66 | 229 | 1.0 | 7.0 | 0.00 | 0.00 | 0.00 | 87 | 1016.1 |
| 20260903004505 | 66 | 225 | 2.0 | 11.0 | 0.00 | 0.00 | 0.00 | 87 | 1016.3 |
| 20260903003604 | 66 | 253 | 1.0 | 11.0 | 0.00 | 0.00 | 0.00 | 87 | 1016.2 |
| 20260903002704 | 66 | 196 | 1.0 | 7.0 | 0.00 | 0.00 | 0.00 | 87 | 1016.2 |
| 20260903001805 | 66 | 240 | 1.0 | 6.0 | 0.00 | 0.00 | 0.00 | 87 | 1016.1 |
| 20260903000903 | 66 | 234 | 1.0 | 7.0 | 0.00 | 0.00 | 0.00 | 87 | 1016.2 |
| 20260903000003 | 66 | 249 | 2.0 | 6.0 | 0.00 | 0.00 | 0.00 | 87 | 1016.4 |
| 20260902235403 | 66 | 228 | 2.0 | 6.0 | 0.00 | 0.00 | 0.00 | 87 | 1016.1 |
| 20260902234503 | 66 | 246 | 2.0 | 7.0 | 0.00 | 0.00 | 0.00 | 87 | 1016.1 |
| 20260902233817 | 66 | 229 | 2.0 | 7.0 | 0.00 | 0.00 | 0.00 | 87 | 1016.1 |
| 20260902232705 | 66 | 225 | 2.0 | 9.0 | 0.00 | 0.00 | 0.00 | 87 | 1016.4 |
| 20260902231803 | 66 | 216 | 1.0 | 9.0 | 0.00 | 0.00 | 0.00 | 87 | 1016.4 |
| 20260902230905 | 66 | 213 | 1.0 | 4.0 | 0.00 | 0.00 | 0.00 | 87 | 1016.4 |
| 20260902230005 | 66 | 205 | 1.0 | 4.0 | 0.00 | 0.00 | 0.00 | 87 | 1016.5 |
| 20260902225405 | 66 | 233 | 2.0 | 8.0 | 0.00 | 0.00 | 0.00 | 87 | 1016.7 |
| 20260902224504 | 66 | 187 | 1.0 | 8.0 | 0.00 | 0.00 | 0.00 | 88 | 1016.6 |
| 20260902223606 | 66 | 214 | 1.0 | 7.0 | 0.00 | 0.00 | 0.00 | 87 | 1016.7 |
| 20260902222703 | 66 | 184 | 1.0 | 8.0 | 0.00 | 0.00 | 0.00 | 87 | 1016.6 |
| 20260902222012 | 66 | 221 | 2.0 | 8.0 | 0.00 | 0.00 | 0.00 | 87 | 1016.4 |
| 20260902220903 | 66 | 232 | 2.0 | 8.0 | 0.00 | 0.00 | 0.00 | 87 | 1016.4 |
| 20260902220003 | 66 | 238 | 2.0 | 8.0 | 0.00 | 0.00 | 0.00 | 87 | 1016.2 |
| 20260902215408 | 66 | 231 | 2.0 | 9.0 | 0.00 | 0.00 | 0.00 | 87 | 1016.2 |
| 20260902214503 | 66 | 237 | 2.0 | 9.0 | 0.00 | 0.00 | 0.00 | 87 | 1016.2 |
| 20260902213605 | 66 | 228 | 2.0 | 10.0 | 0.00 | 0.00 | 0.00 | 87 | 1016.3 |
| 20260902212916 | 67 | 214 | 2.0 | 6.0 | 0.00 | 0.00 | 0.00 | 87 | 1016.2 |
| 20260902211806 | 67 | 203 | 1.0 | 7.0 | 0.00 | 0.00 | 0.00 | 87 | 1016.3 |
| 20260902211115 | 67 | 233 | 1.0 | 9.0 | 0.00 | 0.00 | 0.00 | 87 | 1016.3 |
| 20260902210003 | 67 | 236 | 2.0 | 7.0 | 0.00 | 0.00 | 0.00 | 87 | 1016.3 |
| 20260902205403 | 67 | 223 | 2.0 | 9.0 | 0.00 | 0.00 | 0.00 | 87 | 1016.3 |
| 20260902204717 | 67 | 231 | 2.0 | 7.0 | 0.00 | 0.00 | 0.00 | 87 | 1016.3 |
| 20260902203605 | 67 | 230 | 2.0 | 8.0 | 0.00 | 0.00 | 0.00 | 87 | 1016.2 |
| 20260902202703 | 67 | 190 | 2.0 | 6.0 | 0.00 | 0.00 | 0.00 | 87 | 1016.1 |
| 20260902202019 | 67 | 215 | 2.0 | 10.0 | 0.00 | 0.00 | 0.00 | 87 | 1016.1 |
| 20260902200905 | 66 | 217 | 2.0 | 9.0 | 0.00 | 0.00 | 0.00 | 88 | 1016.4 |
| 20260902200003 | 66 | 215 | 2.0 | 6.0 | 0.00 | 0.00 | 0.00 | 88 | 1016.3 |
| 20260902195403 | 66 | 232 | 2.0 | 7.0 | 0.00 | 0.00 | 0.00 | 88 | 1016.3 |
| 20260902194507 | 66 | 221 | 2.0 | 9.0 | 0.00 | 0.00 | 0.00 | 88 | 1016.2 |
| 20260902193603 | 66 | 234 | 2.0 | 7.0 | 0.00 | 0.00 | 0.00 | 88 | 1016.4 |
| 20260902192917 | 66 | 248 | 1.0 | 7.0 | 0.00 | 0.00 | 0.00 | 88 | 1016.3 |
| 20260902191805 | 66 | 213 | 1.0 | 5.0 | 0.00 | 0.00 | 0.00 | 89 | 1016.2 |
| 20260902190903 | 66 | 185 | 1.0 | 6.0 | 0.00 | 0.00 | 0.00 | 88 | 1016.0 |
| 20260902190005 | 66 | 221 | 2.0 | 9.0 | 0.00 | 0.00 | 0.00 | 88 | 1016.0 |
| 20260902185405 | 66 | 210 | 2.0 | 9.0 | 0.00 | 0.00 | 0.00 | 88 | 1016.1 |
| 20260902184506 | 66 | 208 | 2.0 | 7.0 | 0.00 | 0.00 | 0.00 | 88 | 1016.2 |
| 20260902183603 | 66 | 174 | 2.0 | 7.0 | 0.00 | 0.00 | 0.00 | 88 | 1016.1 |
| 20260902182706 | 65 | 150 | 2.0 | 7.0 | 0.00 | 0.00 | 0.00 | 88 | 1016.3 |
| 20260902181804 | 65 | 153 | 2.0 | 6.0 | 0.00 | 0.00 | 0.00 | 88 | 1016.2 |
| 20260902181118 | 65 | 179 | 2.0 | 6.0 | 0.00 | 0.00 | 0.00 | 87 | 1016.1 |
| 20260902180005 | 65 | 142 | 2.0 | 9.0 | 0.00 | 0.00 | 0.00 | 87 | 1016.3 |
| 20260902175403 | 65 | 143 | 2.0 | 7.0 | 0.00 | 0.00 | 0.00 | 86 | 1016.3 |
| 20260902174503 | 65 | 169 | 2.0 | 6.0 | 0.00 | 0.00 | 0.00 | 86 | 1016.4 |
| 20260902173603 | 66 | 162 | 2.0 | 7.0 | 0.00 | 0.00 | 0.00 | 85 | 1016.5 |
| 20260902172705 | 66 | 167 | 3.0 | 8.0 | 0.00 | 0.00 | 0.00 | 85 | 1016.5 |
| 20260902172015 | 66 | 162 | 2.0 | 8.0 | 0.00 | 0.00 | 0.00 | 84 | 1016.5 |
| 20260902170905 | 66 | 160 | 3.0 | 9.0 | 0.00 | 0.00 | 0.00 | 82 | 1016.4 |
| 20260902170005 | 66 | 160 | 2.0 | 8.0 | 0.00 | 0.00 | 0.00 | 81 | 1016.5 |
| 20260902165403 | 66 | 165 | 4.0 | 13.0 | 0.00 | 0.00 | 0.00 | 81 | 1016.5 |
| 20260902164505 | 67 | 152 | 4.0 | 12.0 | 0.00 | 0.00 | 0.00 | 80 | 1016.7 |
| 20260902163605 | 67 | 151 | 3.0 | 10.0 | 0.00 | 0.00 | 0.00 | 78 | 1016.8 |
| 20260902162705 | 68 | 204 | 3.0 | 13.0 | 0.00 | 0.00 | 0.00 | 77 | 1016.9 |
| 20260902162016 | 68 | 201 | 3.0 | 13.0 | 0.00 | 0.00 | 0.00 | 76 | 1016.9 |
| 20260902160903 | 68 | 157 | 4.0 | 11.0 | 0.00 | 0.00 | 0.00 | 75 | 1016.9 |
| 20260902160007 | 68 | 192 | 3.0 | 12.0 | 0.00 | 0.00 | 0.00 | 73 | 1016.9 |
| 20260902155404 | 68 | 184 | 4.0 | 12.0 | 0.00 | 0.00 | 0.00 | 73 | 1017.1 |
| 20260902154507 | 69 | 150 | 4.0 | 10.0 | 0.00 | 0.00 | 0.00 | 71 | 1017.1 |
| 20260902153817 | 69 | 161 | 4.0 | 10.0 | 0.00 | 0.00 | 0.00 | 70 | 1017.0 |
| 20260902152705 | 70 | 223 | 3.0 | 10.0 | 0.00 | 0.00 | 0.00 | 69 | 1017.2 |
| 20260902151803 | 70 | 185 | 4.0 | 13.0 | 0.00 | 0.00 | 0.00 | 68 | 1017.2 |
| 20260902150903 | 69 | 157 | 3.0 | 8.0 | 0.00 | 0.00 | 0.00 | 69 | 1017.2 |
| 20260902150005 | 69 | 182 | 2.0 | 8.0 | 0.00 | 0.00 | 0.00 | 69 | 1017.3 |
| 20260902145405 | 69 | 214 | 2.0 | 8.0 | 0.00 | 0.00 | 0.00 | 69 | 1017.5 |
| 20260902144715 | 69 | 166 | 2.0 | 11.0 | 0.00 | 0.00 | 0.00 | 69 | 1017.6 |
| 20260902143818 | 69 | 207 | 3.0 | 9.0 | 0.00 | 0.00 | 0.00 | 69 | 1017.5 |
| 20260902142705 | 69 | 183 | 3.0 | 12.0 | 0.00 | 0.00 | 0.00 | 69 | 1017.7 |
| 20260902141805 | 69 | 203 | 2.0 | 7.0 | 0.00 | 0.00 | 0.00 | 69 | 1017.8 |
| 20260902140903 | 69 | 179 | 3.0 | 10.0 | 0.00 | 0.00 | 0.00 | 69 | 1017.8 |
| 20260902140005 | 68 | 212 | 3.0 | 9.0 | 0.00 | 0.00 | 0.00 | 69 | 1017.7 |
| 20260902135614 | 68 | 210 | 3.0 | 9.0 | 0.00 | 0.00 | 0.00 | 69 | 1017.9 |
| 20260902134505 | 68 | 177 | 3.0 | 12.0 | 0.00 | 0.00 | 0.00 | 68 | 1017.9 |
| 20260902133813 | 68 | 151 | 3.0 | 8.0 | 0.00 | 0.00 | 0.00 | 69 | 1018.0 |
| 20260902132704 | 68 | 255 | 3.0 | 11.0 | 0.00 | 0.00 | 0.00 | 69 | 1018.1 |
| 20260902132018 | 68 | 185 | 3.0 | 11.0 | 0.00 | 0.00 | 0.00 | 69 | 1018.1 |
| 20260902131115 | 68 | 158 | 3.0 | 10.0 | 0.00 | 0.00 | 0.00 | 70 | 1018.2 |
| 20260902130003 | 69 | 143 | 3.0 | 11.0 | 0.00 | 0.00 | 0.00 | 71 | 1018.0 |
| 20260902125405 | 69 | 153 | 3.0 | 11.0 | 0.00 | 0.00 | 0.00 | 72 | 1018.1 |
| 20260902124503 | 68 | 178 | 3.0 | 11.0 | 0.00 | 0.00 | 0.00 | 72 | 1018.2 |
| 20260902123603 | 68 | 183 | 4.0 | 14.0 | 0.00 | 0.00 | 0.00 | 73 | 1018.2 |
| 20260902122916 | 69 | 186 | 4.0 | 14.0 | 0.00 | 0.00 | 0.00 | 73 | 1018.3 |
| 20260902121805 | 69 | 190 | 3.0 | 8.0 | 0.00 | 0.00 | 0.00 | 72 | 1018.2 |
| 20260902120904 | 69 | 193 | 2.0 | 8.0 | 0.00 | 0.00 | 0.00 | 72 | 1018.2 |
| 20260902120004 | 68 | 179 | 2.0 | 5.0 | 0.00 | 0.00 | 0.00 | 76 | 1018.3 |
| 20260902115405 | 68 | 194 | 2.0 | 8.0 | 0.00 | 0.00 | 0.00 | 77 | 1018.4 |
| 20260902114505 | 68 | 180 | 2.0 | 9.0 | 0.00 | 0.00 | 0.00 | 78 | 1018.4 |
| 20260902113606 | 68 | 229 | 1.0 | 5.0 | 0.00 | 0.00 | 0.00 | 78 | 1018.5 |
| 20260902112705 | 67 | 181 | 1.0 | 7.0 | 0.00 | 0.00 | 0.00 | 80 | 1018.7 |
| 20260902111805 | 67 | 150 | 1.0 | 5.0 | 0.00 | 0.00 | 0.00 | 80 | 1018.9 |
| 20260902110905 | 66 | 156 | 1.0 | 5.0 | 0.00 | 0.00 | 0.00 | 81 | 1019.0 |
| 20260902110005 | 65 | 171 | 1.0 | 4.0 | 0.00 | 0.00 | 0.00 | 83 | 1019.1 |
| 20260902105405 | 65 | 248 | 1.0 | 6.0 | 0.00 | 0.00 | 0.00 | 84 | 1019.3 |
| 20260902104503 | 64 | 200 | 2.0 | 7.0 | 0.00 | 0.00 | 0.00 | 84 | 1019.5 |
| 20260902103605 | 65 | 171 | 2.0 | 8.0 | 0.00 | 0.00 | 0.00 | 85 | 1019.5 |
| 20260902102703 | 65 | 199 | 1.0 | 8.0 | 0.00 | 0.00 | 0.00 | 83 | 1019.5 |
| 20260902101806 | 66 | 169 | 1.0 | 5.0 | 0.00 | 0.00 | 0.00 | 82 | 1019.5 |
| 20260902101117 | 66 | 238 | 1.0 | 7.0 | 0.00 | 0.00 | 0.00 | 80 | 1019.6 |
| 20260902100005 | 66 | 210 | 1.0 | 4.0 | 0.00 | 0.00 | 0.00 | 80 | 1019.5 |
| 20260902095616 | 66 | 222 | 1.0 | 7.0 | 0.00 | 0.00 | 0.00 | 81 | 1019.5 |
| 20260902094506 | 66 | 209 | 1.0 | 6.0 | 0.00 | 0.00 | 0.00 | 80 | 1019.4 |
| 20260902093816 | 66 | 206 | 1.0 | 6.0 | 0.00 | 0.00 | 0.00 | 80 | 1019.4 |
| 20260902092703 | 66 | 225 | 1.0 | 3.0 | 0.00 | 0.00 | 0.00 | 81 | 1019.5 |
| 20260902091806 | 66 | 236 | 1.0 | 5.0 | 0.00 | 0.00 | 0.00 | 81 | 1019.7 |
| 20260902090905 | 66 | 193 | 1.0 | 6.0 | 0.00 | 0.00 | 0.00 | 79 | 1019.5 |
| 20260902090005 | 66 | 227 | 1.0 | 7.0 | 0.00 | 0.00 | 0.00 | 77 | 1019.5 |
| 20260902085404 | 66 | 240 | 1.0 | 7.0 | 0.00 | 0.00 | 0.00 | 77 | 1019.5 |
| 20260902084505 | 66 | 188 | 1.0 | 6.0 | 0.00 | 0.00 | 0.00 | 77 | 1019.4 |
| 20260902083603 | 66 | 147 | 1.0 | 4.0 | 0.00 | 0.00 | 0.00 | 77 | 1019.3 |
| 20260902082703 | 65 | 233 | 1.0 | 6.0 | 0.00 | 0.00 | 0.00 | 77 | 1019.2 |
| 20260902081805 | 65 | 262 | 1.0 | 8.0 | 0.00 | 0.00 | 0.00 | 79 | 1019.2 |
| 20260902080904 | 65 | 261 | 1.0 | 4.0 | 0.00 | 0.00 | 0.00 | 80 | 1019.1 |
| 20260902080008 | 64 | 234 | 1.0 | 4.0 | 0.00 | 0.00 | 0.00 | 81 | 1019.1 |
| 20260902075617 | 64 | 251 | 1.0 | 4.0 | 0.00 | 0.00 | 0.00 | 81 | 1019.1 |
| 20260902074504 | 64 | 234 | 1.0 | 7.0 | 0.00 | 0.00 | 0.00 | 82 | 1018.9 |
| 20260902073606 | 64 | 184 | 1.0 | 6.0 | 0.00 | 0.00 | 0.00 | 83 | 1018.8 |
| 20260902072705 | 64 | 204 | 1.0 | 9.0 | 0.00 | 0.00 | 0.00 | 83 | 1019.0 |
| 20260902071804 | 63 | 239 | 0.0 | 5.0 | 0.00 | 0.00 | 0.00 | 84 | 1019.0 |
| 20260902071114 | 63 | 197 | 0.0 | 5.0 | 0.00 | 0.00 | 0.00 | 84 | 1019.0 |
| 20260902070216 | 62 | 223 | 0.0 | 3.0 | 0.00 | 0.00 | 0.00 | 85 | 1018.8 |
| 20260902065405 | 62 | 213 | 0.0 | 2.0 | 0.00 | 0.00 | 0.00 | 84 | 1018.8 |
| 20260902064506 | 62 | 220 | 0.0 | 2.0 | 0.00 | 0.00 | 0.00 | 85 | 1018.7 |
| 20260902063603 | 61 | 222 | 0.0 | 2.0 | 0.00 | 0.00 | 0.00 | 85 | 1018.7 |
| 20260902062705 | 61 | 226 | 0.0 | 1.0 | 0.00 | 0.00 | 0.00 | 85 | 1018.8 |
| 20260902061805 | 60 | 226 | 0.0 | 2.0 | 0.00 | 0.00 | 0.00 | 85 | 1018.8 |
| 20260902060906 | 60 | 226 | 0.0 | 1.0 | 0.00 | 0.00 | 0.00 | 85 | 1018.8 |
| 20260902060005 | 60 | 0 | 0.0 | 0.0 | 0.00 | 0.00 | 0.00 | 85 | 1018.8 |
| 20260902055406 | 60 | 0 | 0.0 | 0.0 | 0.00 | 0.00 | 0.00 | 85 | 1018.6 |
| 20260902054503 | 60 | 226 | 0.0 | 1.0 | 0.00 | 0.00 | 0.00 | 84 | 1018.5 |
| 20260902053603 | 60 | 0 | 0.0 | 0.0 | 0.00 | 0.00 | 0.00 | 84 | 1018.5 |
| 20260902052916 | 60 | 226 | 0.0 | 1.0 | 0.00 | 0.00 | 0.00 | 84 | 1018.5 |
| 20260902052013 | 60 | 0 | 0.0 | 0.0 | 0.00 | 0.00 | 0.00 | 84 | 1018.5 |
| 20260902050904 | 60 | 226 | 0.0 | 1.0 | 0.00 | 0.00 | 0.00 | 84 | 1018.6 |
| 20260902050007 | 60 | 0 | 0.0 | 0.0 | 0.00 | 0.00 | 0.00 | 84 | 1018.6 |
| 20260902045405 | 60 | 226 | 0.0 | 1.0 | 0.00 | 0.00 | 0.00 | 84 | 1018.5 |
| 20260902044504 | 60 | 226 | 0.0 | 1.0 | 0.00 | 0.00 | 0.00 | 84 | 1018.7 |
| 20260902043603 | 60 | 0 | 0.0 | 0.0 | 0.00 | 0.00 | 0.00 | 83 | 1018.6 |
| 20260902042708 | 61 | 226 | 0.0 | 1.0 | 0.00 | 0.00 | 0.00 | 83 | 1018.6 |
| 20260902041805 | 61 | 0 | 0.0 | 0.0 | 0.00 | 0.00 | 0.00 | 83 | 1018.6 |
| 20260902040903 | 61 | 0 | 0.0 | 0.0 | 0.00 | 0.00 | 0.00 | 83 | 1018.7 |
| 20260902040006 | 61 | 0 | 0.0 | 0.0 | 0.00 | 0.00 | 0.00 | 83 | 1018.7 |